Flag for Switzerland Weather past 2 weeks in Aarau, Aargau, Switzerland

Now
60 °F

Refreshingly cool.


Feels Like: 60 °F
Forecast: 29 / 54 °F
Wind: 5 mph from East

Location: Wynau


UV Index: 3 (Moderate)

Visibility: N/A


Pressure: 30.03 "Hg

Humidity: 22%

Dew point: 20 °F

Location of AarauLocation

Historic Weather in Aarau

°F

Aarau temperature yesterday

Maximum temperature yesterday: 55 °F (at 3:00 PM)
Minimum temperature yesterday: 32 °F (at 6:00 AM)
Average temperature yesterday: 43 °F

Past Weeks' High & Low Weather Summary

 TemperatureHumidityPressure
High70 °F (Apr 11, 5:00 PM)100% (Apr 7, 4:00 AM)30.38 "Hg (Apr 7, 4:00 AM)
Low32 °F (Apr 16, 6:00 AM)28% (Apr 13, 1:00 PM)29.66 "Hg (Apr 3, 6:00 PM)
Average52 °F69%30.06 "Hg
* Reported Apr 2 4:00 PM — Apr 17 4:00 PM, Aarau, Weather by CustomWeather, © 2014

Note: Actual official high and low records may vary slightly from our data, if they occured in-between our weather recording intervals... More about our weather records

Advertising

Historic Weather Conditions — Data for Previous 24 hours

 ConditionsComfort  
Time TempWeatherWind HumidityBarometerVisibility
4:00 PM
Apr 17
60 °FRefreshingly cool.5 mph28%30.06 "HgN/A
3:00 PM59 °FRefreshingly cool.9 mph30%30.09 "HgN/A
2:00 PM56 °FRefreshingly cool.8 mph33%30.12 "HgN/A
1:00 PM55 °FCool.8 mph38%30.16 "HgN/A
12:00 PM52 °FCool.8 mph45%30.19 "HgN/A
10:00 AM45 °FCool.10 mph56%30.23 "HgN/A
9:00 AM43 °FQuite cool.7 mph63%30.24 "HgN/A
8:00 AM38 °FChilly.1 mph77%30.27 "HgN/A
7:00 AM35 °FChilly.3 mph79%30.27 "HgN/A
6:00 AM37 °FChilly.1 mph74%30.27 "HgN/A
5:00 AM39 °FChilly.10 mph67%30.27 "HgN/A
4:00 AM41 °FQuite cool.10 mph62%30.27 "HgN/A
3:00 AM41 °FQuite cool.8 mph60%30.28 "HgN/A
2:00 AM39 °FChilly.3 mph70%30.31 "HgN/A
1:00 AM38 °FChilly.2 mph69%30.32 "HgN/A
12:00 AM38 °FChilly.1 mph68%30.33 "HgN/A
11:00 PM
Apr 16
39 °FChilly.1 mph66%30.34 "HgN/A
10:00 PM44 °FQuite cool.2 mph50%30.32 "HgN/A
9:00 PM45 °FCool.8 mph49%30.32 "HgN/A
8:00 PM49 °FCool.14 mph40%30.29 "HgN/A
7:00 PM52 °FCool.18 mph36%30.27 "HgN/A
6:00 PM54 °FCool.17 mph33%30.27 "HgN/A
Weather by CustomWeather, © 2014

See weather overview